Time,TemperatureF,DewpointF,PressureIn,WindDirection,WindDirectionDegrees,WindSpeedMPH,WindSpeedGustMPH,Humidity,HourlyPrecipIn,Conditions,Clouds,dailyrainin,SoftwareType,DateUTC
2013-01-01 00:05:00,45.2,43.0,30.05,East,84,0.0,-999.0,92,-99.99,,,0.32,weatherlink.com 1.10,2013-01-01 06:05:00,
2013-01-01 00:20:00,45.0,43.0,30.04,NE,40,0.0,-999.0,91,-99.99,,,0.32,weatherlink.com 1.10,2013-01-01 06:20:00,
2013-01-01 00:35:00,45.0,43.0,30.04,East,80,0.0,-999.0,91,-99.99,,,0.32,weatherlink.com 1.10,2013-01-01 06:35:00,
2013-01-01 00:50:00,44.9,43.0,30.04,NNE,26,0.0,-999.0,91,-99.99,,,0.00,weatherlink.com 1.10,2013-01-01 06:50:00,
2013-01-01 01:05:00,44.7,42.0,30.04,NE,34,0.0,-999.0,90,-99.99,,,0.00,weatherlink.com 1.10,2013-01-01 07:05:00,
2013-01-01 01:20:00,44.7,42.0,30.04,NE,34,0.0,-999.0,89,-99.99,,,0.00,weatherlink.com 1.10,2013-01-01 07:20:00,
2013-01-01 01:35:00,44.7,42.0,30.05,East,95,0.0,-999.0,89,-99.99,,,0.00,weatherlink.com 1.10,2013-01-01 07:35:00,
2013-01-01 01:50:00,44.7,42.0,30.06,East,95,0.0,-999.0,89,-99.99,,,0.00,weatherlink.com 1.10,2013-01-01 07:50:00,
2013-01-01 02:05:00,44.5,42.0,30.07,East,94,0.0,-999.0,89,-99.99,,,0.00,weatherlink.com 1.10,2013-01-01 08:05:00,
2013-01-01 02:20:00,44.2,41.0,30.07,East,82,0.0,-999.0,89,-99.99,,,0.00,weatherlink.com 1.10,2013-01-01 08:20:00,
2013-01-01 02:35:00,44.1,41.0,30.05,East,81,0.0,-999.0,89,-99.99,,,0.00,weatherlink.com 1.10,2013-01-01 08:35:00,
2013-01-01 02:50:00,44.0,41.0,30.06,East,81,0.0,-999.0,89,-99.99,,,0.00,weatherlink.com 1.10,2013-01-01 08:50:00,
2013-01-01 03:05:00,43.9,41.0,30.07,ENE,74,0.0,-999.0,89,-99.99,,,0.00,weatherlink.com 1.10,2013-01-01 09:05:00,
2013-01-01 03:20:00,43.9,41.0,30.08,SSE,148,0.0,-999.0,89,-99.99,,,0.00,weatherlink.com 1.10,2013-01-01 09:20:00,
2013-01-01 03:35:00,43.7,41.0,30.08,NW,313,1.0,-999.0,90,-99.99,,,0.00,weatherlink.com 1.10,2013-01-01 09:35:00,
2013-01-01 03:50:00,43.6,41.0,30.08,ENE,64,0.0,-999.0,90,-99.99,,,0.00,weatherlink.com 1.10,2013-01-01 09:50:00,
2013-01-01 04:05:00,43.6,41.0,30.08,ENE,76,0.0,-999.0,90,-99.99,,,0.00,weatherlink.com 1.10,2013-01-01 10:05:00,
2013-01-01 04:20:00,43.4,41.0,30.06,ENE,76,2.0,-999.0,91,-99.99,,,0.00,weatherlink.com 1.10,2013-01-01 10:20:00,
2013-01-01 04:35:00,43.3,41.0,30.07,ENE,74,0.0,-999.0,91,-99.99,,,0.00,weatherlink.com 1.10,2013-01-01 10:35:00,
2013-01-01 04:50:00,43.3,41.0,30.09,West,275,0.0,-999.0,91,-99.99,,,0.00,weatherlink.com 1.10,2013-01-01 10:50:00,
2013-01-01 05:05:00,43.2,41.0,30.08,WNW,289,0.0,-999.0,91,-99.99,,,0.00,weatherlink.com 1.10,2013-01-01 11:05:00,
2013-01-01 05:20:00,43.0,40.0,30.10,WSW,246,0.0,-999.0,90,-99.99,,,0.00,weatherlink.com 1.10,2013-01-01 11:20:00,
2013-01-01 05:35:00,42.7,40.0,30.11,West,267,0.0,-999.0,90,-99.99,,,0.00,weatherlink.com 1.10,2013-01-01 11:35:00,
2013-01-01 05:50:00,42.7,40.0,30.12,West,272,0.0,-999.0,91,-99.99,,,0.00,weatherlink.com 1.10,2013-01-01 11:50:00,
2013-01-01 06:05:00,42.4,40.0,30.11,WSW,248,4.0,-999.0,90,-99.99,,,0.00,weatherlink.com 1.10,2013-01-01 12:05:00,
2013-01-01 06:35:00,42.2,40.0,30.12,West,271,0.0,-999.0,90,-99.99,,,0.00,weatherlink.com 1.10,2013-01-01 12:35:00,
2013-01-01 06:50:00,41.8,39.0,30.13,WSW,244,0.0,-999.0,90,-99.99,,,0.00,weatherlink.com 1.10,2013-01-01 12:50:00,
2013-01-01 07:05:00,41.4,39.0,30.13,WSW,256,0.0,-999.0,90,-99.99,,,0.00,weatherlink.com 1.10,2013-01-01 13:05:00,
2013-01-01 07:20:00,41.3,39.0,30.13,WNW,284,0.0,-999.0,90,-99.99,,,0.00,weatherlink.com 1.10,2013-01-01 13:20:00,
2013-01-01 07:36:00,41.1,38.0,30.14,WNW,292,0.0,-999.0,90,-99.99,,,0.00,weatherlink.com 1.10,2013-01-01 13:36:00,
2013-01-01 07:51:00,40.7,38.0,30.14,NNW,342,6.0,-999.0,90,-99.99,,,0.00,weatherlink.com 1.10,2013-01-01 13:51:00,
2013-01-01 08:06:00,40.6,38.0,30.14,West,272,0.0,-999.0,90,-99.99,,,0.00,weatherlink.com 1.10,2013-01-01 14:06:00,
2013-01-01 08:21:00,40.6,38.0,30.16,West,266,0.0,-999.0,90,-99.99,,,0.00,weatherlink.com 1.10,2013-01-01 14:21:00,
2013-01-01 08:36:00,40.5,38.0,30.18,West,279,0.0,-999.0,90,-99.99,,,0.00,weatherlink.com 1.10,2013-01-01 14:36:00,
2013-01-01 08:51:00,40.2,38.0,30.17,WNW,301,7.0,-999.0,90,-99.99,,,0.00,weatherlink.com 1.10,2013-01-01 14:51:00,
2013-01-01 09:06:00,40.2,38.0,30.20,WNW,284,0.0,-999.0,90,-99.99,,,0.00,weatherlink.com 1.10,2013-01-01 15:06:00,
2013-01-01 09:21:00,40.3,38.0,30.19,NW,317,0.0,-999.0,90,-99.99,,,0.00,weatherlink.com 1.10,2013-01-01 15:21:00,
2013-01-01 09:36:00,39.9,37.0,30.21,West,281,6.0,-999.0,90,-99.99,,,0.00,weatherlink.com 1.10,2013-01-01 15:36:00,
2013-01-01 09:51:00,39.8,37.0,30.21,SW,223,5.0,-999.0,90,-99.99,,,0.00,weatherlink.com 1.10,2013-01-01 15:51:00,
2013-01-01 10:06:00,39.6,37.0,30.22,WSW,245,4.0,-999.0,90,-99.99,,,0.00,weatherlink.com 1.10,2013-01-01 16:06:00,
2013-01-01 10:21:00,39.4,37.0,30.22,West,279,5.0,-999.0,90,-99.99,,,0.00,weatherlink.com 1.10,2013-01-01 16:21:00,
2013-01-01 10:38:00,39.4,37.0,30.23,WSW,251,0.0,-999.0,90,-99.99,,,0.00,weatherlink.com 1.10,2013-01-01 16:38:00,
2013-01-01 10:51:00,39.4,37.0,30.24,ESE,123,1.0,-999.0,89,-99.99,,,0.00,weatherlink.com 1.10,2013-01-01 16:51:00,
2013-01-01 11:06:00,39.6,37.0,30.24,West,267,4.0,-999.0,89,-99.99,,,0.00,weatherlink.com 1.10,2013-01-01 17:06:00,
2013-01-01 11:21:00,39.3,36.0,30.23,WNW,292,1.0,-999.0,88,-99.99,,,0.00,weatherlink.com 1.10,2013-01-01 17:21:00,
2013-01-01 11:36:00,39.7,36.0,30.23,SW,222,0.0,-999.0,87,-99.99,,,0.00,weatherlink.com 1.10,2013-01-01 17:36:00,
2013-01-01 12:06:00,40.7,37.0,30.23,WSW,244,2.0,-999.0,85,-99.99,,,0.00,weatherlink.com 1.10,2013-01-01 18:06:00,
2013-01-01 12:21:00,41.0,37.0,30.22,WNW,284,6.0,-999.0,85,-99.99,,,0.00,weatherlink.com 1.10,2013-01-01 18:21:00,
2013-01-01 12:36:00,40.8,36.0,30.21,West,266,0.0,-999.0,83,-99.99,,,0.00,weatherlink.com 1.10,2013-01-01 18:36:00,
2013-01-01 12:51:00,40.9,36.0,30.20,WNW,301,2.0,-999.0,83,-99.99,,,0.00,weatherlink.com 1.10,2013-01-01 18:51:00,
2013-01-01 13:06:00,41.1,36.0,30.20,SW,222,0.0,-999.0,82,-99.99,,,0.00,weatherlink.com 1.10,2013-01-01 19:06:00,
2013-01-01 13:21:00,41.2,36.0,30.19,NW,307,4.0,-999.0,82,-99.99,,,0.00,weatherlink.com 1.10,2013-01-01 19:21:00,
2013-01-01 13:36:00,40.9,36.0,30.18,WSW,254,0.0,-999.0,81,-99.99,,,0.00,weatherlink.com 1.10,2013-01-01 19:36:00,
2013-01-01 13:51:00,41.0,36.0,30.20,West,272,0.0,-999.0,81,-99.99,,,0.00,weatherlink.com 1.10,2013-01-01 19:51:00,
2013-01-01 14:06:00,40.9,36.0,30.20,NNW,346,5.0,-999.0,81,-99.99,,,0.00,weatherlink.com 1.10,2013-01-01 20:06:00,
2013-01-01 14:21:00,40.4,35.0,30.20,WSW,238,2.0,-999.0,81,-99.99,,,0.00,weatherlink.com 1.10,2013-01-01 20:21:00,
2013-01-01 14:36:00,40.2,35.0,30.20,West,261,0.0,-999.0,82,-99.99,,,0.00,weatherlink.com 1.10,2013-01-01 20:36:00,
2013-01-01 14:51:00,40.1,35.0,30.19,West,267,0.0,-999.0,82,-99.99,,,0.00,weatherlink.com 1.10,2013-01-01 20:51:00,
2013-01-01 15:06:00,40.2,35.0,30.19,West,263,7.0,-999.0,82,-99.99,,,0.00,weatherlink.com 1.10,2013-01-01 21:06:00,
2013-01-01 15:21:00,40.0,35.0,30.20,WSW,248,0.0,-999.0,81,-99.99,,,0.00,weatherlink.com 1.10,2013-01-01 21:21:00,
2013-01-01 15:36:00,39.8,34.0,30.20,West,261,4.0,-999.0,81,-99.99,,,0.00,weatherlink.com 1.10,2013-01-01 21:36:00,
2013-01-01 15:51:00,39.6,34.0,30.20,West,270,7.0,-999.0,81,-99.99,,,0.00,weatherlink.com 1.10,2013-01-01 21:51:00,
2013-01-01 16:06:00,39.5,34.0,30.21,WSW,255,0.0,-999.0,81,-99.99,,,0.00,weatherlink.com 1.10,2013-01-01 22:06:00,
2013-01-01 16:21:00,39.3,34.0,30.22,WNW,286,1.0,-999.0,81,-99.99,,,0.00,weatherlink.com 1.10,2013-01-01 22:21:00,
2013-01-01 16:36:00,38.8,33.0,30.23,West,275,0.0,-999.0,81,-99.99,,,0.00,weatherlink.com 1.10,2013-01-01 22:36:00,
2013-01-01 16:51:00,38.7,33.0,30.23,WSW,250,0.0,-999.0,81,-99.99,,,0.00,weatherlink.com 1.10,2013-01-01 22:51:00,
2013-01-01 17:06:00,38.4,33.0,30.24,WSW,252,0.0,-999.0,81,-99.99,,,0.00,weatherlink.com 1.10,2013-01-01 23:06:00,
2013-01-01 17:21:00,38.3,33.0,30.24,WSW,257,6.0,-999.0,81,-99.99,,,0.00,weatherlink.com 1.10,2013-01-01 23:21:00,
2013-01-01 17:36:00,37.9,33.0,30.24,NW,306,3.0,-999.0,81,-99.99,,,0.00,weatherlink.com 1.10,2013-01-01 23:36:00,
2013-01-01 17:52:00,37.8,32.0,30.25,WNW,283,5.0,-999.0,81,-99.99,,,0.00,weatherlink.com 1.10,2013-01-01 23:52:00,
2013-01-01 18:07:00,37.4,32.0,30.25,West,259,0.0,-999.0,81,-99.99,,,0.00,weatherlink.com 1.10,2013-01-02 00:07:00,
2013-01-01 18:22:00,37.2,32.0,30.26,West,263,0.0,-999.0,81,-99.99,,,0.00,weatherlink.com 1.10,2013-01-02 00:22:00,
2013-01-01 18:37:00,37.2,32.0,30.27,WNW,303,0.0,-999.0,81,-99.99,,,0.00,weatherlink.com 1.10,2013-01-02 00:37:00,
2013-01-01 18:52:00,37.1,31.0,30.26,West,264,1.0,-999.0,80,-99.99,,,0.00,weatherlink.com 1.10,2013-01-02 00:52:00,
2013-01-01 19:07:00,37.1,32.0,30.27,West,263,1.0,-999.0,81,-99.99,,,0.00,weatherlink.com 1.10,2013-01-02 01:07:00,
2013-01-01 19:22:00,37.0,31.0,30.27,WNW,298,0.0,-999.0,80,-99.99,,,0.00,weatherlink.com 1.10,2013-01-02 01:22:00,
2013-01-01 19:37:00,36.9,31.0,30.26,WNW,294,0.0,-999.0,80,-99.99,,,0.00,weatherlink.com 1.10,2013-01-02 01:37:00,
2013-01-01 19:52:00,37.0,31.0,30.27,North,360,0.0,-999.0,80,-99.99,,,0.00,weatherlink.com 1.10,2013-01-02 01:52:00,
2013-01-01 20:07:00,36.9,31.0,30.27,NE,38,0.0,-999.0,79,-99.99,,,0.00,weatherlink.com 1.10,2013-01-02 02:07:00,
2013-01-01 20:22:00,36.9,31.0,30.26,NNW,347,0.0,-999.0,79,-99.99,,,0.00,weatherlink.com 1.10,2013-01-02 02:22:00,
2013-01-01 20:37:00,36.8,31.0,30.26,ENE,70,0.0,-999.0,78,-99.99,,,0.00,weatherlink.com 1.10,2013-01-02 02:37:00,
2013-01-01 20:52:00,36.6,30.0,30.27,WNW,289,0.0,-999.0,76,-99.99,,,0.00,weatherlink.com 1.10,2013-01-02 02:52:00,
2013-01-01 21:07:00,36.5,30.0,30.27,West,267,0.0,-999.0,77,-99.99,,,0.00,weatherlink.com 1.10,2013-01-02 03:07:00,
2013-01-01 21:22:00,36.6,30.0,30.27,West,275,0.0,-999.0,78,-99.99,,,0.00,weatherlink.com 1.10,2013-01-02 03:22:00,
2013-01-01 21:37:00,36.7,30.0,30.28,WNW,290,0.0,-999.0,77,-99.99,,,0.00,weatherlink.com 1.10,2013-01-02 03:37:00,
2013-01-01 21:52:00,36.6,30.0,30.28,WNW,285,0.0,-999.0,78,-99.99,,,0.00,weatherlink.com 1.10,2013-01-02 03:52:00,
2013-01-01 22:07:00,36.1,30.0,30.29,WSW,258,3.0,-999.0,79,-99.99,,,0.00,weatherlink.com 1.10,2013-01-02 04:07:00,
2013-01-01 22:22:00,35.9,30.0,30.29,WSW,250,7.0,-999.0,80,-99.99,,,0.00,weatherlink.com 1.10,2013-01-02 04:22:00,
2013-01-01 22:37:00,35.7,30.0,30.29,West,268,1.0,-999.0,80,-99.99,,,0.00,weatherlink.com 1.10,2013-01-02 04:37:00,
2013-01-01 22:52:00,35.7,30.0,30.30,West,269,0.0,-999.0,80,-99.99,,,0.00,weatherlink.com 1.10,2013-01-02 04:52:00,
2013-01-01 23:07:00,35.5,30.0,30.30,WNW,286,0.0,-999.0,80,-99.99,,,0.00,weatherlink.com 1.10,2013-01-02 05:07:00,
2013-01-01 23:22:00,35.5,30.0,30.30,West,279,0.0,-999.0,80,-99.99,,,0.00,weatherlink.com 1.10,2013-01-02 05:22:00,
2013-01-01 23:37:00,35.5,30.0,30.30,NW,305,0.0,-999.0,80,-99.99,,,0.00,weatherlink.com 1.10,2013-01-02 05:37:00,
2013-01-01 23:52:00,35.5,30.0,30.29,West,261,0.0,-999.0,80,-99.99,,,0.00,weatherlink.com 1.10,2013-01-02 05:52:00,